Weather History for Morrisville, VT

Change the Weather History Date:

Thursday, August 28, 2014

  Actual Average Record
Temperature  
Mean Temperature 62 °F 64 °F  
Max Temperature 70 °F 76 °F 86 °F (1999)
Min Temperature 53 °F 52 °F 42 °F (2002)
Degree Days  
Heating Degree Days 3 3  
Month to date heating degree days 39 56  
Since 1 June heating degree days 140 209  
Since 1 July heating degree days 68 86  
Cooling Degree Days 0 2  
Month to date cooling degree days 54 72  
Year to date cooling degree days 208 240  
Since 1 June cooling degree days 203 232  
Growing Degree Days 12 (Base 50)    
Moisture  
Dew Point 51 °F    
Average Humidity 70    
Maximum Humidity 93    
Minimum Humidity 47    
Precipitation  
Precipitation 0.00 in 0.11 in 3.59 in (2011)
Month to date precipitation 2.48 3.71  
Year to date precipitation 26.13 23.44  
Sea Level Pressure  
Sea Level Pressure 29.95 in    
Wind  
Wind Speed 5 mph (NW)    
Max Wind Speed 17 mph    
Max Gust Speed 25 mph    
Visibility 10 miles    
Events      
T = Trace of Precipitation, MM = Missing Value Source: NWS Daily Summary

Daily Weather History Graph

Daily Weather History Graph

Search for Another Location

Airport:

Trip Planner

Search our weather history database for the weather conditions in past years. The results will help you decide how hot, cold, wet, or windy it might be!

Date:

Astronomy

Aug. 28, 2014 Rise Set
Actual Time 6:08 AM EDT 7:34 PM EDT
Civil Twilight 5:37 AM EDT 8:04 PM EDT
Nautical Twilight 5:01 AM EDT 8:40 PM EDT
Astronomical Twilight 4:22 AM EDT 9:19 PM EDT
Moon 9:06 AM EDT (8/28) 8:47 PM EDT (8/28)
Length of Visible Light 14h 26m
Length of Day
13h 25m
Waxing Crescent, 8% of the Moon is Illuminated
Aug 28
Waxing Crescent
Sep 2
First Quarter
Sep 8
Full
Sep 15
Last Quarter
Sep 24
New

Hourly Weather History & Observations

Time (EDT) Temp. Dew Point Humidity Pressure Visibility Wind Dir Wind Speed Gust Speed Precip Events Conditions
1:54 AM 57.0 °F 54.0 °F 89% 29.92 in 10.0 mi Calm Calm - N/A   Partly Cloudy
2:54 AM 55.9 °F 54.0 °F 93% 29.91 in 10.0 mi Calm Calm - N/A   Scattered Clouds
3:54 AM 55.9 °F 54.0 °F 93% 29.90 in 10.0 mi Calm Calm - N/A   Mostly Cloudy
4:54 AM 55.0 °F 53.1 °F 93% 29.90 in 10.0 mi Calm Calm - N/A   Partly Cloudy
5:54 AM 54.0 °F 52.0 °F 93% 29.91 in 8.0 mi SSE 3.5 mph - N/A   Partly Cloudy
6:54 AM 55.9 °F 54.0 °F 93% 29.92 in 10.0 mi Calm Calm - N/A   Overcast
7:54 AM 60.1 °F 57.0 °F 90% 29.94 in 10.0 mi Calm Calm - N/A   Overcast
8:54 AM 63.0 °F 55.0 °F 75% 29.94 in 10.0 mi NNW 8.1 mph - N/A   Overcast
9:54 AM 64.9 °F 54.0 °F 68% 29.93 in 10.0 mi Variable 4.6 mph - N/A   Overcast
10:07 AM 66.0 °F 54.0 °F 65% 29.93 in 10.0 mi Variable 5.8 mph - N/A   Overcast
10:17 AM 66.0 °F 52.0 °F 60% 29.93 in 10.0 mi NW 10.4 mph - N/A   Mostly Cloudy
10:54 AM 66.9 °F 52.0 °F 59% 29.93 in 10.0 mi NW 6.9 mph - N/A   Scattered Clouds
11:54 AM 66.0 °F 50.0 °F 56% 29.93 in 10.0 mi NW 11.5 mph - N/A   Mostly Cloudy
12:54 PM 66.0 °F 46.9 °F 50% 29.93 in 10.0 mi NW 9.2 mph 21.9 mph N/A   Mostly Cloudy
1:54 PM 69.1 °F 50.0 °F 51% 29.94 in 10.0 mi NNW 10.4 mph - N/A   Mostly Cloudy
2:54 PM 69.1 °F 48.9 °F 49% 29.92 in 10.0 mi North 11.5 mph - N/A   Scattered Clouds
3:54 PM 66.0 °F 48.0 °F 52% 29.94 in 10.0 mi NNW 9.2 mph 19.6 mph N/A   Overcast
4:54 PM 64.9 °F 48.0 °F 54% 29.96 in 10.0 mi NNW 12.7 mph 20.7 mph N/A   Overcast
5:54 PM 64.9 °F 46.9 °F 52% 29.97 in 10.0 mi NW 10.4 mph 17.3 mph N/A   Partly Cloudy
6:54 PM 61.0 °F 48.0 °F 62% 29.99 in 10.0 mi NNW 5.8 mph - N/A   Clear
7:54 PM 61.0 °F 50.0 °F 67% 30.01 in 10.0 mi Calm Calm - N/A   Overcast
8:54 PM 61.0 °F 50.0 °F 67% 30.04 in 10.0 mi Calm Calm - N/A   Overcast
9:54 PM 57.9 °F 50.0 °F 75% 30.05 in 10.0 mi Calm Calm - N/A   Mostly Cloudy
10:54 PM 55.9 °F 51.1 °F 84% 30.06 in 10.0 mi Calm Calm - N/A   Overcast
11:54 PM 57.0 °F 51.1 °F 81% 30.07 in 10.0 mi Calm Calm - N/A   Overcast